Project,Study,Ord_Occ,Event_Num,Date_Time_UTC,Date_Time_PST,Lat_Dec,Lon_Dec,Sta_ID,Line,Sta,Depth,Pressure,Temp0,Temp1,Salt0,CorrSalt0,Salt1,CorrSalt1,O2ml/L,AveCorrO2ml/L,StaCorrO2ml/L,FluorV,AveEstChl,StaEstChl,ISUSV,AveEstNO3,StaEstNO3,SigThetaTS0,SigThetaTS1,BAT,XMiss,SPAR,PAR,BTL_Depth,BTL_Temp,BTL_Salt,BTL_O2ml/L,BTL_Chl,BTL_Pha,BTL_NO3
CalCOFI,0701JD,077,,31-Jan-2007 10:33:39 PM,31-Jan-2007 2:33:39 PM,36.70916,-122.21984,066.7 052.5,066.7,052.5,1016.000,1026.071,4.0385,4.0392,34.4434,34.4421,34.4421,34.4422,0.35467,0.40,0.18,0.0255,,,1.9388,46.42,43.134,27.3475,27.3463,0.4416,89.5488,4.3164e+00,9.9990e+03,1017,4.04 ,34.444,  .38,,,42.0
CalCOFI,0701JD,077,,31-Jan-2007 10:33:39 PM,31-Jan-2007 2:33:39 PM,36.70916,-122.21984,066.7 052.5,066.7,052.5,1015.000,1025.059,4.0382,4.0392,34.4434,34.4421,34.4421,34.4422,0.35454,0.40,0.18,0.0256,,,1.9709,47.36,44.063,27.3475,27.3463,0.4416,89.5476,4.2232e+00,9.9990e+03,,,,,,,
CalCOFI,0701JD,077,,31-Jan-2007 10:33:40 PM,31-Jan-2007 2:33:40 PM,36.70916,-122.21984,066.7 052.5,066.7,052.5,1014.000,1024.047,4.0393,4.0404,34.4433,34.4420,34.4420,34.4421,0.34105,0.38,0.16,0.0257,,,1.9530,46.84,43.545,27.3473,27.3461,0.4416,89.5476,4.0332e+00,9.9990e+03,,,,,,,
CalCOFI,0701JD,077,,31-Jan-2007 10:33:41 PM,31-Jan-2007 2:33:41 PM,36.70916,-122.21984,066.7 052.5,066.7,052.5,1013.000,1023.034,4.0399,4.0406,34.4433,34.4420,34.4419,34.4420,0.34611,0.39,0.17,0.0248,,,1.9277,46.10,42.813,27.3472,27.3460,0.4417,89.5451,4.1712e+00,9.9990e+03,,,,,,,
CalCOFI,0701JD,077,,31-Jan-2007 10:33:42 PM,31-Jan-2007 2:33:42 PM,36.70916,-122.21984,066.7 052.5,066.7,052.5,1012.000,1022.022,4.0401,4.0409,34.4433,34.4420,34.4419,34.4420,0.35383,0.40,0.18,0.0249,,,1.9151,45.73,42.448,27.3472,27.3460,0.4403,89.5759,4.3533e+00,9.9990e+03,,,,,,,
CalCOFI,0701JD,077,,31-Jan-2007 10:33:43 PM,31-Jan-2007 2:33:43 PM,36.70916,-122.21984,066.7 052.5,066.7,052.5,1011.000,1021.010,4.0396,4.0404,34.4433,34.4420,34.4419,34.4420,0.35412,0.40,0.18,0.0254,,,1.8874,44.91,41.647,27.3472,27.3461,0.4404,89.5737,3.8514e+00,9.9990e+03,,,,,,,
CalCOFI,0701JD,077,,31-Jan-2007 10:33:45 PM,31-Jan-2007 2:33:45 PM,36.70916,-122.21984,066.7 052.5,066.7,052.5,1010.000,1019.997,4.0393,4.0403,34.4434,34.4421,34.4419,34.4420,0.35357,0.40,0.18,0.0251,,,1.9378,46.39,43.105,27.3473,27.3460,0.4403,89.5780,4.4404e+00,9.9990e+03,,,,,,,
CalCOFI,0701JD,077,,31-Jan-2007 10:33:47 PM,31-Jan-2007 2:33:47 PM,36.70916,-122.21984,066.7 052.5,066.7,052.5,1009.000,1018.985,4.0400,4.0406,34.4433,34.4420,34.4419,34.4420,0.35337,0.40,0.18,0.0250,,,1.9265,46.06,42.778,27.3472,27.3460,0.4403,89.5779,4.1940e+00,9.9990e+03,,,,,,,
CalCOFI,0701JD,077,,31-Jan-2007 10:33:48 PM,31-Jan-2007 2:33:48 PM,36.70916,-122.21984,066.7 052.5,066.7,052.5,1008.000,1017.973,4.0395,4.0402,34.4432,34.4419,34.4419,34.4420,0.35349,0.40,0.18,0.0255,,,1.9301,46.17,42.882,27.3472,27.3460,0.4387,89.6119,4.1487e+00,9.9990e+03,,,,,,,
CalCOFI,0701JD,077,,31-Jan-2007 10:33:49 PM,31-Jan-2007 2:33:49 PM,36.70916,-122.21984,066.7 052.5,066.7,052.5,1007.000,1016.960,4.0397,4.0403,34.4431,34.4418,34.4420,34.4421,0.35334,0.40,0.18,0.0250,,,1.9341,46.28,42.998,27.3471,27.3461,0.4396,89.5935,4.1350e+00,9.9990e+03,,,,,,,
CalCOFI,0701JD,077,,31-Jan-2007 10:33:50 PM,31-Jan-2007 2:33:50 PM,36.70916,-122.21984,066.7 052.5,066.7,052.5,1006.000,1015.948,4.0395,4.0401,34.4434,34.4421,34.4421,34.4422,0.35324,0.40,0.18,0.0253,,,1.9318,46.22,42.932,27.3473,27.3462,0.4407,89.5691,4.1469e+00,9.9990e+03,,,,,,,
CalCOFI,0701JD,077,,31-Jan-2007 10:33:51 PM,31-Jan-2007 2:33:51 PM,36.70916,-122.21984,066.7 052.5,066.7,052.5,1005.000,1014.935,4.0394,4.0398,34.4434,34.4421,34.4422,34.4423,0.35316,0.40,0.18,0.0252,,,1.9136,45.68,42.405,27.3473,27.3463,0.4403,89.5769,4.1886e+00,9.9990e+03,,,,,,,
CalCOFI,0701JD,077,,31-Jan-2007 10:33:52 PM,31-Jan-2007 2:33:52 PM,36.70916,-122.21984,066.7 052.5,066.7,052.5,1004.000,1013.923,4.0391,4.0395,34.4434,34.4421,34.4424,34.4425,0.35325,0.40,0.18,0.0254,,,1.8795,44.68,41.418,27.3473,27.3464,0.4389,89.6082,4.3454e+00,9.9990e+03,,,,,,,
CalCOFI,0701JD,077,,31-Jan-2007 10:33:53 PM,31-Jan-2007 2:33:53 PM,36.70916,-122.21984,066.7 052.5,066.7,052.5,1003.000,1012.911,4.0389,4.0396,34.4435,34.4422,34.4422,34.4423,0.35324,0.40,0.18,0.0252,,,1.9536,46.86,43.563,27.3474,27.3463,0.4387,89.6120,4.0394e+00,9.9990e+03,,,,,,,
CalCOFI,0701JD,077,,31-Jan-2007 10:33:54 PM,31-Jan-2007 2:33:54 PM,36.70916,-122.21984,066.7 052.5,066.7,052.5,1002.000,1011.898,4.0394,4.0401,34.4435,34.4422,34.4422,34.4423,0.35358,0.40,0.18,0.0254,,,1.9730,47.43,44.124,27.3473,27.3462,0.4392,89.6008,4.4153e+00,9.9990e+03,,,,,,,
CalCOFI,0701JD,077,,31-Jan-2007 10:33:55 PM,31-Jan-2007 2:33:55 PM,36.70916,-122.21984,066.7 052.5,066.7,052.5,1001.000,1010.886,4.0389,4.0394,34.4435,34.4422,34.4422,34.4423,0.35166,0.39,0.17,0.0252,,,1.9583,46.99,43.699,27.3474,27.3463,0.4391,89.6030,3.9257e+00,9.9990e+03,,,,,,,
CalCOFI,0701JD,077,,31-Jan-2007 10:33:56 PM,31-Jan-2007 2:33:56 PM,36.70916,-122.21984,066.7 052.5,066.7,052.5,1000.000,1009.874,4.0391,4.0395,34.4434,34.4421,34.4421,34.4422,0.35271,0.40,0.18,0.0250,,,1.9216,45.92,42.636,27.3472,27.3462,0.4391,89.6037,4.4336e+00,9.9990e+03,,,,,,,
CalCOFI,0701JD,077,,31-Jan-2007 10:33:57 PM,31-Jan-2007 2:33:57 PM,36.70916,-122.21984,066.7 052.5,066.7,052.5,999.000,1008.862,4.0397,4.0404,34.4434,34.4421,34.4420,34.4421,0.35201,0.40,0.17,0.0250,,,1.9635,47.15,43.849,27.3472,27.3460,0.4391,89.6039,4.2987e+00,9.9990e+03,,,,,,,
CalCOFI,0701JD,077,,31-Jan-2007 10:33:58 PM,31-Jan-2007 2:33:58 PM,36.70916,-122.21984,066.7 052.5,066.7,052.5,998.000,1007.849,4.0393,4.0400,34.4434,34.4421,34.4422,34.4423,0.35280,0.40,0.18,0.0250,,,1.9412,46.49,43.204,27.3472,27.3462,0.4382,89.6252,4.3572e+00,9.9990e+03,,,,,,,
CalCOFI,0701JD,077,,31-Jan-2007 10:33:59 PM,31-Jan-2007 2:33:59 PM,36.70916,-122.21984,066.7 052.5,066.7,052.5,997.000,1006.837,4.0404,4.0407,34.4434,34.4421,34.4422,34.4423,0.35215,0.40,0.17,0.0253,,,1.9132,45.67,42.393,27.3471,27.3461,0.4380,89.6287,4.0105e+00,9.9990e+03,,,,,,,
CalCOFI,0701JD,077,,31-Jan-2007 10:34:00 PM,31-Jan-2007 2:34:00 PM,36.70916,-122.21984,066.7 052.5,066.7,052.5,996.000,1005.825,4.0416,4.0439,34.4436,34.4423,34.4419,34.4420,0.35116,0.39,0.17,0.0256,,,1.9276,46.09,42.810,27.3471,27.3455,0.4382,89.6247,4.1165e+00,9.9990e+03,,,,,,,
CalCOFI,0701JD,077,,31-Jan-2007 10:34:01 PM,31-Jan-2007 2:34:01 PM,36.70916,-122.21984,066.7 052.5,066.7,052.5,995.000,1004.812,4.0486,4.0496,34.4427,34.4414,34.4414,34.4415,0.35119,0.39,0.17,0.0251,,,1.9612,47.08,43.783,27.3457,27.3446,0.4383,89.6225,4.0229e+00,9.9990e+03,,,,,,,
CalCOFI,0701JD,077,,31-Jan-2007 10:34:02 PM,31-Jan-2007 2:34:02 PM,36.70916,-122.21984,066.7 052.5,066.7,052.5,994.000,1003.800,4.0509,4.0512,34.4424,34.4411,34.4412,34.4413,-9.990e-29,,0.17,0.0252,,,1.9479,46.69,43.398,27.3452,27.3442,0.4390,89.6067,4.6060e+00,9.9990e+03,,,,,,,
CalCOFI,0701JD,077,,31-Jan-2007 10:34:03 PM,31-Jan-2007 2:34:03 PM,36.70916,-122.21984,066.7 052.5,066.7,052.5,993.000,1002.788,4.0493,4.0501,34.4425,34.4412,34.4413,34.4414,-9.990e-29,,0.17,0.0254,,,1.9353,46.32,43.033,27.3454,27.3444,0.4386,89.6146,4.3251e+00,9.9990e+03,,,,,,,
CalCOFI,0701JD,077,,31-Jan-2007 10:34:06 PM,31-Jan-2007 2:34:06 PM,36.70916,-122.21984,066.7 052.5,066.7,052.5,992.000,1001.775,4.0483,4.0493,34.4426,34.4413,34.4414,34.4415,-9.990e-29,,0.17,0.0251,,,1.9451,46.61,43.317,27.3456,27.3445,0.4398,89.5875,4.1025e+00,9.9990e+03,,,,,,,
CalCOFI,0701JD,077,,31-Jan-2007 10:34:07 PM,31-Jan-2007 2:34:07 PM,36.70916,-122.21984,066.7 052.5,066.7,052.5,991.000,1000.763,4.0499,4.0517,34.4425,34.4412,34.4411,34.4412,-9.990e-29,,0.17,0.0247,,,1.9387,46.42,43.131,27.3454,27.3440,0.4397,89.5915,4.4916e+00,9.9990e+03,,,,,,,
CalCOFI,0701JD,077,,31-Jan-2007 10:34:08 PM,31-Jan-2007 2:34:08 PM,36.70916,-122.21984,066.7 052.5,066.7,052.5,990.000,999.751,4.0534,4.0543,34.4422,34.4409,34.4409,34.4410,-9.990e-29,,0.17,0.0252,,,1.9427,46.54,43.247,27.3448,27.3437,0.4384,89.6204,4.2711e+00,9.9990e+03,,,,,,,
CalCOFI,0701JD,077,,31-Jan-2007 10:34:09 PM,31-Jan-2007 2:34:09 PM,36.70916,-122.21984,066.7 052.5,066.7,052.5,989.000,998.739,4.0545,4.0555,34.4420,34.4407,34.4407,34.4408,0.34855,0.39,0.17,0.0254,,,1.9373,46.38,43.091,27.3445,27.3433,0.4399,89.5868,4.5144e+00,9.9990e+03,,,,,,,
CalCOFI,0701JD,077,,31-Jan-2007 10:34:10 PM,31-Jan-2007 2:34:10 PM,36.70916,-122.21984,066.7 052.5,066.7,052.5,988.000,997.726,4.0547,4.0556,34.4420,34.4407,34.4407,34.4408,0.34861,0.39,0.17,0.0256,,,1.9178,45.80,42.527,27.3445,27.3434,0.4385,89.6184,4.4028e+00,9.9990e+03,,,,,,,
CalCOFI,0701JD,077,,31-Jan-2007 10:34:11 PM,31-Jan-2007 2:34:11 PM,36.70916,-122.21984,066.7 052.5,066.7,052.5,987.000,996.714,4.0581,4.0591,34.4417,34.4404,34.4404,34.4405,0.34893,0.39,0.17,0.0254,,,1.9209,45.90,42.616,27.3438,27.3427,0.4396,89.5932,3.9523e+00,9.9990e+03,,,,,,,
CalCOFI,0701JD,077,,31-Jan-2007 10:34:11 PM,31-Jan-2007 2:34:11 PM,36.70916,-122.21984,066.7 052.5,066.7,052.5,986.000,995.702,4.0584,4.0587,34.4416,34.4403,34.4405,34.4406,0.34850,0.39,0.17,0.0254,,,1.9219,45.93,42.645,27.3437,27.3428,0.4406,89.5711,4.6074e+00,9.9990e+03,,,,,,,
CalCOFI,0701JD,077,,31-Jan-2007 10:34:12 PM,31-Jan-2007 2:34:12 PM,36.70916,-122.21984,066.7 052.5,066.7,052.5,985.000,994.690,4.0568,4.0573,34.4416,34.4403,34.4406,34.4407,0.34865,0.39,0.17,0.0250,,,1.8879,44.93,41.661,27.3438,27.3431,0.4411,89.5583,4.2919e+00,9.9990e+03,,,,,,,
CalCOFI,0701JD,077,,31-Jan-2007 10:34:13 PM,31-Jan-2007 2:34:13 PM,36.70916,-122.21984,066.7 052.5,066.7,052.5,984.000,993.677,4.0568,4.0578,34.4419,34.4406,34.4407,34.4408,0.34811,0.39,0.17,0.0251,,,1.9164,45.76,42.486,27.3441,27.3430,0.4402,89.5789,4.2666e+00,9.9990e+03,,,,,,,
CalCOFI,0701JD,077,,31-Jan-2007 10:34:14 PM,31-Jan-2007 2:34:14 PM,36.70916,-122.21984,066.7 052.5,066.7,052.5,983.000,992.665,4.0586,4.0591,34.4416,34.4403,34.4405,34.4406,0.34845,0.39,0.17,0.0252,,,1.9440,46.57,43.285,27.3437,27.3428,0.4406,89.5710,4.2572e+00,9.9990e+03,,,,,,,
CalCOFI,0701JD,077,,31-Jan-2007 10:34:15 PM,31-Jan-2007 2:34:15 PM,36.70916,-122.21984,066.7 052.5,066.7,052.5,982.000,991.653,4.0611,4.0619,34.4413,34.4400,34.4400,34.4401,0.34786,0.39,0.17,0.0253,,,1.9242,45.99,42.712,27.3432,27.3421,0.4400,89.5834,4.1420e+00,9.9990e+03,,,,,,,
CalCOFI,0701JD,077,,31-Jan-2007 10:34:16 PM,31-Jan-2007 2:34:16 PM,36.70916,-122.21984,066.7 052.5,066.7,052.5,981.000,990.641,4.0607,4.0614,34.4415,34.4402,34.4401,34.4402,0.34776,0.39,0.17,0.0252,,,1.9222,45.93,42.654,27.3434,27.3422,0.4402,89.5782,4.3312e+00,9.9990e+03,,,,,,,
CalCOFI,0701JD,077,,31-Jan-2007 10:34:18 PM,31-Jan-2007 2:34:18 PM,36.70916,-122.21984,066.7 052.5,066.7,052.5,980.000,989.629,4.0634,4.0638,34.4412,34.4399,34.4400,34.4401,0.34685,0.39,0.17,0.0253,,,1.9476,46.68,43.389,27.3428,27.3419,0.4399,89.5864,4.3680e+00,9.9990e+03,,,,,,,
CalCOFI,0701JD,077,,31-Jan-2007 10:34:20 PM,31-Jan-2007 2:34:20 PM,36.70916,-122.21984,066.7 052.5,066.7,052.5,979.000,988.616,4.0686,4.0658,34.4411,34.4398,34.4396,34.4397,0.34568,0.39,0.17,0.0251,,,1.9362,46.35,43.059,27.3422,27.3414,0.4385,89.6165,4.1422e+00,9.9990e+03,,,,,,,
CalCOFI,0701JD,077,,31-Jan-2007 10:34:21 PM,31-Jan-2007 2:34:21 PM,36.70916,-122.21984,066.7 052.5,066.7,052.5,978.000,987.604,4.0843,4.0857,34.4400,34.4387,34.4381,34.4382,0.34381,0.39,0.16,0.0255,,,1.9376,46.39,43.100,27.3397,27.3381,0.4367,89.6587,4.2410e+00,9.9990e+03,,,,,,,
CalCOFI,0701JD,077,,31-Jan-2007 10:34:22 PM,31-Jan-2007 2:34:22 PM,36.70916,-122.21984,066.7 052.5,066.7,052.5,977.000,986.592,4.1075,4.1088,34.4378,34.4365,34.4363,34.4364,0.34215,0.38,0.16,0.0248,,,1.9658,47.21,43.916,27.3356,27.3343,0.4360,89.6737,4.4150e+00,9.9990e+03,,,,,,,
CalCOFI,0701JD,077,,31-Jan-2007 10:34:23 PM,31-Jan-2007 2:34:23 PM,36.70916,-122.21984,066.7 052.5,066.7,052.5,976.000,985.580,4.1165,4.1188,34.4372,34.4359,34.4357,34.4358,0.34110,0.38,0.16,0.0254,,,1.9424,46.53,43.238,27.3342,27.3327,0.4361,89.6719,4.3453e+00,9.9990e+03,,,,,,,
CalCOFI,0701JD,077,,31-Jan-2007 10:34:24 PM,31-Jan-2007 2:34:24 PM,36.70916,-122.21984,066.7 052.5,066.7,052.5,975.000,984.568,4.1197,4.1209,34.4368,34.4355,34.4354,34.4355,0.33980,0.38,0.16,0.0250,,,1.9316,46.21,42.926,27.3335,27.3323,0.4355,89.6849,4.4456e+00,9.9990e+03,,,,,,,
CalCOFI,0701JD,077,,31-Jan-2007 10:34:25 PM,31-Jan-2007 2:34:25 PM,36.70916,-122.21984,066.7 052.5,066.7,052.5,974.000,983.555,4.1212,4.1221,34.4368,34.4355,34.4355,34.4356,0.33866,0.38,0.16,0.0253,,,1.9266,46.06,42.781,27.3333,27.3323,0.4363,89.6663,4.4793e+00,9.9990e+03,,,,,,,
CalCOFI,0701JD,077,,31-Jan-2007 10:34:25 PM,31-Jan-2007 2:34:25 PM,36.70916,-122.21984,066.7 052.5,066.7,052.5,973.000,982.543,4.1216,4.1224,34.4367,34.4354,34.4355,34.4356,0.33861,0.38,0.16,0.0256,,,1.9157,45.74,42.466,27.3332,27.3322,0.4359,89.6754,3.9377e+00,9.9990e+03,,,,,,,
CalCOFI,0701JD,077,,31-Jan-2007 10:34:26 PM,31-Jan-2007 2:34:26 PM,36.70916,-122.21984,066.7 052.5,066.7,052.5,972.000,981.531,4.1219,4.1226,34.4365,34.4352,34.4355,34.4356,0.33827,0.38,0.16,0.0254,,,1.9057,45.45,42.176,27.3330,27.3322,0.4360,89.6736,4.5531e+00,9.9990e+03,,,,,,,
CalCOFI,0701JD,077,,31-Jan-2007 10:34:27 PM,31-Jan-2007 2:34:27 PM,36.70916,-122.21984,066.7 052.5,066.7,052.5,971.000,980.519,4.1221,4.1227,34.4365,34.4352,34.4354,34.4355,0.33737,0.38,0.16,0.0256,,,1.8899,44.99,41.719,27.3330,27.3321,0.4359,89.6757,4.2028e+00,9.9990e+03,,,,,,,
CalCOFI,0701JD,077,,31-Jan-2007 10:34:29 PM,31-Jan-2007 2:34:29 PM,36.70916,-122.21984,066.7 052.5,066.7,052.5,970.000,979.507,4.1224,4.1229,34.4362,34.4349,34.4353,34.4354,0.33511,0.37,0.15,0.0254,,,1.8725,44.48,41.215,27.3327,27.3319,0.4352,89.6908,4.7422e+00,9.9990e+03,,,,,,,
CalCOFI,0701JD,077,,31-Jan-2007 10:34:30 PM,31-Jan-2007 2:34:30 PM,36.70916,-122.21984,066.7 052.5,066.7,052.5,969.000,978.494,4.1234,4.1241,34.4363,34.4350,34.4352,34.4353,0.33453,0.37,0.15,0.0253,,,1.9145,45.71,42.431,27.3327,27.3317,0.4355,89.6838,4.2143e+00,9.9990e+03,,,,,,,
CalCOFI,0701JD,077,,31-Jan-2007 10:34:31 PM,31-Jan-2007 2:34:31 PM,36.70916,-122.21984,066.7 052.5,066.7,052.5,968.000,977.482,4.1242,4.1248,34.4362,34.4349,34.4351,34.4352,0.33507,0.37,0.15,0.0251,,,1.9617,47.09,43.797,27.3325,27.3315,0.4346,89.7051,3.9286e+00,9.9990e+03,,,,,,,
CalCOFI,0701JD,077,,31-Jan-2007 10:34:32 PM,31-Jan-2007 2:34:32 PM,36.70916,-122.21984,066.7 052.5,066.7,052.5,967.000,976.470,4.1240,4.1244,34.4360,34.4347,34.4351,34.4352,0.33367,0.37,0.15,0.0248,,,1.9668,47.24,43.945,27.3324,27.3316,0.4355,89.6859,3.8390e+00,9.9990e+03,,,,,,,
CalCOFI,0701JD,077,,31-Jan-2007 10:34:33 PM,31-Jan-2007 2:34:33 PM,36.70916,-122.21984,066.7 052.5,066.7,052.5,966.000,975.458,4.1247,4.1253,34.4360,34.4347,34.4350,34.4351,0.33399,0.37,0.15,0.0254,,,1.9407,46.48,43.189,27.3323,27.3314,0.4365,89.6617,4.2731e+00,9.9990e+03,,,,,,,
CalCOFI,0701JD,077,,31-Jan-2007 10:34:34 PM,31-Jan-2007 2:34:34 PM,36.70916,-122.21984,066.7 052.5,066.7,052.5,965.000,974.446,4.1246,4.1262,34.4359,34.4346,34.4347,34.4348,0.33396,0.37,0.15,0.0252,,,1.9154,45.73,42.457,27.3322,27.3311,0.4397,89.5899,4.2466e+00,9.9990e+03,,,,,,,
CalCOFI,0701JD,077,,31-Jan-2007 10:34:36 PM,31-Jan-2007 2:34:36 PM,36.70916,-122.21984,066.7 052.5,066.7,052.5,964.000,973.434,4.1268,4.1273,34.4357,34.4344,34.4346,34.4347,0.33215,0.37,0.15,0.0251,,,1.9166,45.77,42.492,27.3318,27.3309,0.4362,89.6691,3.9925e+00,9.9990e+03,,,,,,,
CalCOFI,0701JD,077,,31-Jan-2007 10:34:38 PM,31-Jan-2007 2:34:38 PM,36.70916,-122.21984,066.7 052.5,066.7,052.5,963.000,972.422,4.1296,4.1305,34.4355,34.4342,34.4345,34.4346,0.33198,0.37,0.15,0.0254,,,1.9176,45.80,42.521,27.3314,27.3305,0.4351,89.6950,4.2129e+00,9.9990e+03,,,,,,,
CalCOFI,0701JD,077,,31-Jan-2007 10:34:38 PM,31-Jan-2007 2:34:38 PM,36.70916,-122.21984,066.7 052.5,066.7,052.5,962.000,971.410,4.1312,4.1320,34.4354,34.4341,34.4345,34.4346,0.33145,0.37,0.15,0.0254,,,1.9282,46.11,42.828,27.3311,27.3303,0.4347,89.7029,4.0123e+00,9.9990e+03,,,,,,,
CalCOFI,0701JD,077,,31-Jan-2007 10:34:39 PM,31-Jan-2007 2:34:39 PM,36.70916,-122.21984,066.7 052.5,066.7,052.5,961.000,970.397,4.1339,4.1342,34.4354,34.4341,34.4343,34.4344,0.33092,0.37,0.15,0.0254,,,1.9289,46.13,42.848,27.3308,27.3299,0.4344,89.7086,4.2803e+00,9.9990e+03,,,,,,,
CalCOFI,0701JD,077,,31-Jan-2007 10:34:40 PM,31-Jan-2007 2:34:40 PM,36.70916,-122.21984,066.7 052.5,066.7,052.5,960.000,969.385,4.1424,4.1436,34.4352,34.4339,34.4335,34.4336,0.33048,0.37,0.15,0.0251,,,1.9201,45.87,42.593,27.3298,27.3283,0.4345,89.7072,4.0212e+00,9.9990e+03,,,,,,,
CalCOFI,0701JD,077,,31-Jan-2007 10:34:41 PM,31-Jan-2007 2:34:41 PM,36.70916,-122.21984,066.7 052.5,066.7,052.5,959.000,968.373,4.1609,4.1627,34.4334,34.4321,34.4320,34.4321,0.32926,0.37,0.15,0.0255,,,1.9350,46.31,43.024,27.3264,27.3251,0.4337,89.7258,4.5153e+00,9.9990e+03,,,,,,,
CalCOFI,0701JD,077,,31-Jan-2007 10:34:42 PM,31-Jan-2007 2:34:42 PM,36.70916,-122.21984,066.7 052.5,066.7,052.5,958.000,967.361,4.1637,4.1653,34.4330,34.4317,34.4319,34.4320,0.32734,0.36,0.14,0.0253,,,1.9240,45.99,42.706,27.3258,27.3248,0.4340,89.7195,4.4157e+00,9.9990e+03,,,,,,,
CalCOFI,0701JD,077,,31-Jan-2007 10:34:43 PM,31-Jan-2007 2:34:43 PM,36.70916,-122.21984,066.7 052.5,066.7,052.5,957.000,966.349,4.1658,4.1666,34.4327,34.4314,34.4319,34.4320,0.32746,0.37,0.14,0.0252,,,1.9145,45.71,42.431,27.3253,27.3246,0.4338,89.7239,4.4463e+00,9.9990e+03,,,,,,,
CalCOFI,0701JD,077,,31-Jan-2007 10:34:44 PM,31-Jan-2007 2:34:44 PM,36.70916,-122.21984,066.7 052.5,066.7,052.5,956.000,965.337,4.1674,4.1682,34.4327,34.4314,34.4317,34.4318,0.32619,0.36,0.14,0.0251,,,1.9038,45.39,42.121,27.3252,27.3243,0.4336,89.7282,4.2207e+00,9.9990e+03,,,,,,,
CalCOFI,0701JD,077,,31-Jan-2007 10:34:44 PM,31-Jan-2007 2:34:44 PM,36.70916,-122.21984,066.7 052.5,066.7,052.5,955.000,964.325,4.1703,4.1709,34.4325,34.4312,34.4316,34.4317,0.32573,0.36,0.14,0.0247,,,1.9222,45.93,42.654,27.3247,27.3239,0.4342,89.7134,4.1421e+00,9.9990e+03,,,,,,,
CalCOFI,0701JD,077,,31-Jan-2007 10:34:45 PM,31-Jan-2007 2:34:45 PM,36.70916,-122.21984,066.7 052.5,066.7,052.5,954.000,963.313,4.1756,4.1773,34.4323,34.4310,34.4311,34.4312,0.32508,0.36,0.14,0.0252,,,1.9221,45.93,42.651,27.3240,27.3228,0.4336,89.7286,3.7546e+00,9.9990e+03,,,,,,,
CalCOFI,0701JD,077,,31-Jan-2007 10:34:47 PM,31-Jan-2007 2:34:47 PM,36.70916,-122.21984,066.7 052.5,066.7,052.5,953.000,962.301,4.1796,4.1838,34.4318,34.4305,34.4303,34.4304,0.32410,0.36,0.14,0.0251,,,1.9208,45.89,42.613,27.3231,27.3215,0.4342,89.7144,4.2907e+00,9.9990e+03,,,,,,,
CalCOFI,0701JD,077,,31-Jan-2007 10:34:49 PM,31-Jan-2007 2:34:49 PM,36.70916,-122.21984,066.7 052.5,066.7,052.5,952.000,961.288,4.1784,4.1804,34.4319,34.4306,34.4308,34.4309,0.32186,0.36,0.14,0.0254,,,1.9355,46.32,43.039,27.3233,27.3223,0.4353,89.6901,4.1847e+00,9.9990e+03,,,,,,,
CalCOFI,0701JD,077,,31-Jan-2007 10:34:50 PM,31-Jan-2007 2:34:50 PM,36.70916,-122.21984,066.7 052.5,066.7,052.5,951.000,960.276,4.1882,4.1908,34.4311,34.4298,34.4299,34.4300,0.31981,0.36,0.13,-9.990e-29,,,1.9179,45.81,42.529,27.3217,27.3205,0.4333,89.7340,4.2922e+00,9.9990e+03,,,,,,,
CalCOFI,0701JD,077,,31-Jan-2007 10:34:52 PM,31-Jan-2007 2:34:52 PM,36.70916,-122.21984,066.7 052.5,066.7,052.5,950.000,959.264,4.1926,4.1930,34.4308,34.4295,34.4298,34.4299,0.31907,0.35,0.13,-9.990e-29,,,1.9306,46.18,42.897,27.3209,27.3201,0.4303,89.8014,4.2071e+00,9.9990e+03,,,,,,,
CalCOFI,0701JD,077,,31-Jan-2007 10:34:53 PM,31-Jan-2007 2:34:53 PM,36.70916,-122.21984,066.7 052.5,066.7,052.5,949.000,958.252,4.1928,4.1935,34.4307,34.4294,34.4299,34.4300,0.31791,0.35,0.13,0.0256,,,1.9323,46.23,42.946,27.3209,27.3201,0.4309,89.7873,4.4806e+00,9.9990e+03,,,,,,,
CalCOFI,0701JD,077,,31-Jan-2007 10:34:54 PM,31-Jan-2007 2:34:54 PM,36.70916,-122.21984,066.7 052.5,066.7,052.5,948.000,957.240,4.1932,4.1938,34.4306,34.4293,34.4299,34.4300,0.31787,0.35,0.13,0.0255,,,1.9097,45.57,42.292,27.3207,27.3201,0.4320,89.7630,4.1436e+00,9.9990e+03,,,,,,,
CalCOFI,0701JD,077,,31-Jan-2007 10:34:54 PM,31-Jan-2007 2:34:54 PM,36.70916,-122.21984,066.7 052.5,066.7,052.5,947.000,956.228,4.1942,4.1947,34.4306,34.4293,34.4298,34.4299,0.31677,0.35,0.13,0.0254,,,1.9148,45.72,42.440,27.3206,27.3199,0.4313,89.7783,4.4799e+00,9.9990e+03,,,,,,,
CalCOFI,0701JD,077,,31-Jan-2007 10:34:55 PM,31-Jan-2007 2:34:55 PM,36.70916,-122.21984,066.7 052.5,066.7,052.5,946.000,955.216,4.1952,4.1963,34.4306,34.4293,34.4297,34.4298,0.31733,0.35,0.13,0.0252,,,1.9066,45.48,42.202,27.3205,27.3197,0.4316,89.7728,4.0372e+00,9.9990e+03,,,,,,,
CalCOFI,0701JD,077,,31-Jan-2007 10:34:56 PM,31-Jan-2007 2:34:56 PM,36.70916,-122.21984,066.7 052.5,066.7,052.5,945.000,954.204,4.1969,4.1980,34.4306,34.4293,34.4295,34.4296,0.31579,0.35,0.13,0.0253,,,1.8857,44.86,41.597,27.3203,27.3193,0.4311,89.7848,4.2035e+00,9.9990e+03,,,,,,,
CalCOFI,0701JD,077,,31-Jan-2007 10:34:57 PM,31-Jan-2007 2:34:57 PM,36.70916,-122.21984,066.7 052.5,066.7,052.5,944.000,953.192,4.1993,4.2001,34.4303,34.4290,34.4293,34.4294,0.31604,0.35,0.13,0.0253,,,1.9101,45.58,42.304,27.3198,27.3189,0.4311,89.7848,4.6058e+00,9.9990e+03,,,,,,,
CalCOFI,0701JD,077,,31-Jan-2007 10:34:58 PM,31-Jan-2007 2:34:58 PM,36.70916,-122.21984,066.7 052.5,066.7,052.5,943.000,952.180,4.2020,4.2034,34.4300,34.4287,34.4291,34.4292,0.31534,0.35,0.13,0.0253,,,1.9124,45.65,42.370,27.3193,27.3184,0.4295,89.8199,4.2792e+00,9.9990e+03,,,,,,,
CalCOFI,0701JD,077,,31-Jan-2007 10:34:59 PM,31-Jan-2007 2:34:59 PM,36.70916,-122.21984,066.7 052.5,066.7,052.5,942.000,951.168,4.2033,4.2043,34.4300,34.4287,34.4290,34.4291,0.31426,0.35,0.13,0.0254,,,1.9297,46.15,42.871,27.3191,27.3183,0.4308,89.7898,4.2544e+00,9.9990e+03,,,,,,,
CalCOFI,0701JD,077,,31-Jan-2007 10:35:01 PM,31-Jan-2007 2:35:01 PM,36.70916,-122.21984,066.7 052.5,066.7,052.5,941.000,950.156,4.2037,4.2046,34.4298,34.4285,34.4290,34.4291,0.31358,0.35,0.13,0.0251,,,1.9191,45.84,42.564,27.3189,27.3182,0.4318,89.7674,3.9706e+00,9.9990e+03,,,,,,,
CalCOFI,0701JD,077,,31-Jan-2007 10:35:02 PM,31-Jan-2007 2:35:02 PM,36.70916,-122.21984,066.7 052.5,066.7,052.5,940.000,949.144,4.2046,4.2054,34.4299,34.4286,34.4290,34.4291,0.31363,0.35,0.13,0.0251,,,1.8977,45.21,41.945,27.3189,27.3181,0.4295,89.8199,4.5980e+00,9.9990e+03,,,,,,,
CalCOFI,0701JD,077,,31-Jan-2007 10:35:03 PM,31-Jan-2007 2:35:03 PM,36.70916,-122.21984,066.7 052.5,066.7,052.5,939.000,948.132,4.2058,4.2066,34.4297,34.4284,34.4288,34.4289,0.31240,0.35,0.12,0.0254,,,1.8983,45.23,41.962,27.3187,27.3178,0.4300,89.8085,4.4239e+00,9.9990e+03,,,,,,,
CalCOFI,0701JD,077,,31-Jan-2007 10:35:04 PM,31-Jan-2007 2:35:04 PM,36.70916,-122.21984,066.7 052.5,066.7,052.5,938.000,947.120,4.2064,4.2071,34.4297,34.4284,34.4289,34.4290,0.31236,0.35,0.12,0.0254,,,1.9583,46.99,43.699,27.3185,27.3179,0.4313,89.7795,4.2080e+00,9.9990e+03,,,,,,,
CalCOFI,0701JD,077,,31-Jan-2007 10:35:05 PM,31-Jan-2007 2:35:05 PM,36.70916,-122.21984,066.7 052.5,066.7,052.5,937.000,946.108,4.2070,4.2078,34.4291,34.4278,34.4288,34.4289,0.31267,0.35,0.12,0.0257,,,1.8904,45.00,41.734,27.3180,27.3177,0.4305,89.7964,4.3387e+00,9.9990e+03,,,,,,,
CalCOFI,0701JD,077,,31-Jan-2007 10:35:06 PM,31-Jan-2007 2:35:06 PM,36.70916,-122.21984,066.7 052.5,066.7,052.5,936.000,945.096,4.2082,4.2096,34.4295,34.4282,34.4287,34.4288,-9.990e-29,,0.12,0.0256,,,1.9443,46.58,43.293,27.3182,27.3174,0.4302,89.8047,4.5188e+00,9.9990e+03,,,,,,,
CalCOFI,0701JD,077,,31-Jan-2007 10:35:07 PM,31-Jan-2007 2:35:07 PM,36.70916,-122.21984,066.7 052.5,066.7,052.5,935.000,944.084,4.2094,4.2101,34.4294,34.4281,34.4285,34.4286,-9.990e-29,,0.12,0.0250,,,1.9130,45.66,42.388,27.3180,27.3172,0.4307,89.7930,4.5540e+00,9.9990e+03,,,,,,,
CalCOFI,0701JD,077,,31-Jan-2007 10:35:09 PM,31-Jan-2007 2:35:09 PM,36.70916,-122.21984,066.7 052.5,066.7,052.5,934.000,943.072,4.2093,4.2100,34.4294,34.4281,34.4286,34.4287,0.31272,0.35,0.12,0.0252,,,1.9232,45.96,42.683,27.3180,27.3172,0.4298,89.8131,4.3275e+00,9.9990e+03,,,,,,,